GW0326 Weather Reports


Display with metric or nautical units.
time (UTC)temp
F
wind
direction
speed
MPH
gust
MPH
rain 1hr
in
rain 24hr
in
rain mn
in
humidity
%
barometer
mb
20260504081553 45 285 1.0 3.0 0.00 0.00 0.00 41 1014.9
20260504081047 45 285 1.0 4.0 0.00 0.00 0.00 42 1014.9
20260504080545 45 285 1.0 4.0 0.00 0.00 0.00 42 1015.1
20260504050544 47 0 0.0 1.0 0.00 0.00 0.00 41 1016.2
20260504045543 48 0 0.0 3.0 0.00 0.00 0.00 41 1016.3
20260504045043 48 0 0.0 3.0 0.00 0.00 0.00 41 1016.3
20260504044547 48 0 0.0 4.0 0.00 0.00 0.00 40 1016.3
20260504044043 48 263 0.0 4.0 0.00 0.00 0.00 40 1016.4
20260504043547 48 259 0.0 3.0 0.00 0.00 0.00 41 1016.4
20260504043058 49 0 0.0 2.0 0.00 0.00 0.00 40 1016.4
20260504042545 48 0 0.0 2.0 0.00 0.00 0.00 41 1016.3
20260504042048 48 0 0.0 2.0 0.00 0.00 0.00 41 1016.4
20260504041552 48 0 0.0 1.0 0.00 0.00 0.00 41 1016.4
20260504041047 49 0 0.0 1.0 0.00 0.00 0.00 41 1016.4
20260504040544 49 0 0.0 1.0 0.00 0.00 0.00 41 1016.5
20260504040120 49 0 0.0 1.0 0.00 0.00 0.00 41 1016.5
20260504035547 50 0 0.0 2.0 0.00 0.00 0.00 41 1016.6
20260504035045 50 0 0.0 2.0 0.00 0.00 0.00 40 1016.6
20260504034550 50 0 0.0 1.0 0.00 0.00 0.00 40 1016.7
20260504034043 50 0 0.0 1.0 0.00 0.00 0.00 40 1016.7
20260504033545 50 0 0.0 1.0 0.00 0.00 0.00 40 1016.8
20260504033051 50 0 0.0 2.0 0.00 0.00 0.00 40 1016.8
20260504032547 51 0 0.0 3.0 0.00 0.00 0.00 40 1016.8
20260504032046 51 0 0.0 4.0 0.00 0.00 0.00 40 1016.9
20260504031606 51 0 0.0 4.0 0.00 0.00 0.00 40 1016.9
20260504031046 51 0 0.0 3.0 0.00 0.00 0.00 40 1016.8
20260504030545 51 0 0.0 3.0 0.00 0.00 0.00 40 1016.8
20260504030051 51 0 0.0 2.0 0.00 0.00 0.00 39 1016.7
20260504025545 51 0 0.0 4.0 0.00 0.00 0.00 39 1016.6
20260504025045 52 0 0.0 4.0 0.00 0.00 0.00 39 1016.6
20260504024553 52 0 0.0 4.0 0.00 0.00 0.00 38 1016.6
20260504024045 52 0 0.0 1.0 0.00 0.00 0.00 38 1016.6
20260504023545 52 0 0.0 3.0 0.00 0.00 0.00 37 1016.6
20260504023049 52 0 0.0 3.0 0.00 0.00 0.00 37 1016.6
20260504022544 53 0 0.0 4.0 0.00 0.00 0.00 36 1016.6
20260504022045 53 0 0.0 4.0 0.00 0.00 0.00 36 1016.5
20260504021557 53 261 0.0 3.0 0.00 0.00 0.00 36 1016.6
20260504021044 53 248 0.0 3.0 0.00 0.00 0.00 36 1016.6
20260504020544 54 250 0.0 3.0 0.00 0.00 0.00 35 1016.5
20260504020107 54 241 0.0 0.0 0.00 0.00 0.00 34 1016.6
20260504015547 54 0 0.0 0.0 0.00 0.00 0.00 34 1016.5
20260504015045 55 0 0.0 0.0 0.00 0.00 0.00 33 1016.5
20260504014552 55 0 0.0 0.0 0.00 0.00 0.00 33 1016.5
20260504014045 56 0 0.0 0.0 0.00 0.00 0.00 32 1016.5
20260504013547 56 0 0.0 0.0 0.00 0.00 0.00 32 1016.4
20260504013048 56 0 0.0 0.0 0.00 0.00 0.00 32 1016.4
20260504012549 56 0 0.0 3.0 0.00 0.00 0.00 32 1016.4
20260504012045 56 0 0.0 3.0 0.00 0.00 0.00 32 1016.3
20260504011552 57 0 0.0 3.0 0.00 0.00 0.00 31 1016.4
20260504011044 57 0 0.0 4.0 0.00 0.00 0.00 31 1016.4
20260504010545 57 0 0.0 6.0 0.00 0.00 0.00 31 1016.4
20260504010055 57 281 1.0 6.0 0.00 0.00 0.00 30 1016.3
20260504005546 57 309 1.0 6.0 0.00 0.00 0.00 31 1016.3
20260504005049 58 0 0.0 10.0 0.00 0.00 0.00 30 1016.4
20260504004553 58 0 1.0 10.0 0.00 0.00 0.00 30 1016.4
20260504004046 58 333 0.0 5.0 0.00 0.00 0.00 30 1016.4
20260504003546 58 326 0.0 8.0 0.00 0.00 0.00 29 1016.5
20260504003053 59 0 1.0 8.0 0.00 0.00 0.00 29 1016.5
20260504002547 59 279 1.0 7.0 0.00 0.00 0.00 29 1016.4
20260504002044 59 0 0.0 7.0 0.00 0.00 0.00 29 1016.7
20260504001555 58 229 0.0 9.0 0.00 0.00 0.00 30 1016.5
20260504001046 58 351 1.0 9.0 0.00 0.00 0.00 31 1016.5
20260504000544 58 11 0.0 8.0 0.00 0.00 0.00 31 1016.6
20260504000053 58 0 0.0 10.0 0.00 0.00 0.00 31 1016.6
20260503235545 58 0 1.0 10.0 0.00 0.00 0.00 31 1016.6
20260503235047 58 221 1.0 10.0 0.00 0.00 0.00 30 1016.9
20260503234622 58 275 4.0 10.0 0.00 0.00 0.00 29 1016.8
20260503234051 57 0 1.0 10.0 0.00 0.00 0.00 29 1016.9
20260503233547 57 0 2.0 15.0 0.00 0.00 0.00 29 1016.8
20260503233057 57 0 4.0 15.0 0.00 0.00 0.00 29 1016.8
20260503232543 57 248 3.0 16.0 0.00 0.00 0.00 29 1016.8
20260503232045 58 281 3.0 16.0 0.00 0.00 0.00 29 1016.9
20260503231552 58 282 2.0 12.0 0.00 0.00 0.00 29 1016.9
20260503231047 59 257 4.0 15.0 0.00 0.00 0.00 28 1016.6
20260503230550 60 296 4.0 15.0 0.00 0.00 0.00 26 1016.8
20260503230051 61 223 0.0 5.0 0.00 0.00 0.00 27 1016.4
20260503225544 61 221 1.0 5.0 0.00 0.00 0.00 26 1016.3
20260503225048 61 182 1.0 7.0 0.00 0.00 0.00 26 1016.1
20260503224554 60 0 3.0 9.0 0.00 0.00 0.00 28 1016.1
20260503224045 59 61 2.0 12.0 0.00 0.00 0.00 30 1016.4
20260503223547 58 31 3.0 12.0 0.00 0.00 0.00 30 1016.8
20260503223102 59 244 3.0 8.0 0.00 0.00 0.00 28 1016.9
20260503222548 59 19 0.0 6.0 0.00 0.00 0.00 28 1016.9
20260503222045 60 44 0.0 8.0 0.00 0.00 0.00 27 1016.8
20260503221557 60 0 3.0 8.0 0.00 0.00 0.00 27 1016.6
20260503221047 60 52 2.0 10.0 0.00 0.00 0.00 27 1016.4
20260503220547 61 0 2.0 10.0 0.00 0.00 0.00 27 1016.5
20260503220054 61 48 4.0 10.0 0.00 0.00 0.00 28 1016.6
20260503215547 61 55 2.0 6.0 0.00 0.00 0.00 28 1016.8
20260503215047 60 14 1.0 4.0 0.00 0.00 0.00 28 1016.9
20260503214600 60 13 0.0 5.0 0.00 0.00 0.00 26 1017.1
20260503214050 60 15 0.0 7.0 0.00 0.00 0.00 25 1017.1
20260503213544 61 0 1.0 7.0 0.00 0.00 0.00 24 1017.1
20260503213101 61 184 2.0 8.0 0.00 0.00 0.00 24 1017.1
20260503212547 62 238 0.0 8.0 0.00 0.00 0.00 25 1017.2
20260503212058 62 360 2.0 8.0 0.00 0.00 0.00 24 1017.2
20260503211552 61 0 2.0 8.0 0.00 0.00 0.00 25 1017.1
20260503211043 61 276 1.0 7.0 0.00 0.00 0.00 25 1017.4
20260503210544 60 0 0.0 7.0 0.00 0.00 0.00 23 1017.5
20260503210054 60 0 1.0 13.0 0.00 0.00 0.00 24 1017.5
20260503205545 60 321 0.0 13.0 0.00 0.00 0.00 24 1017.8
20260503205044 60 247 1.0 10.0 0.00 0.00 0.00 24 1017.6
20260503204601 60 200 3.0 10.0 0.00 0.00 0.00 23 1017.7
20260503204046 59 209 3.0 13.0 0.00 0.00 0.00 24 1017.7
20260503203544 60 0 4.0 13.0 0.00 0.00 0.00 25 1017.8
20260503203100 60 270 0.0 8.0 0.00 0.00 0.00 25 1018.0
20260503202547 59 0 0.0 9.0 0.00 0.00 0.00 24 1018.0
20260503202047 60 0 3.0 9.0 0.00 0.00 0.00 23 1017.9
20260503201601 61 11 2.0 9.0 0.00 0.00 0.00 23 1018.3
20260503201044 62 310 2.0 10.0 0.00 0.00 0.00 20 1018.1
20260503200548 62 309 2.0 10.0 0.00 0.00 0.00 20 1018.0
20260503200055 62 0 1.0 10.0 0.00 0.00 0.00 20 1017.8
20260503195548 62 0 2.0 10.0 0.00 0.00 0.00 21 1017.8
20260503195047 61 330 0.0 10.0 0.00 0.00 0.00 20 1017.9
20260503194604 61 285 3.0 11.0 0.00 0.00 0.00 19 1018.0
20260503194044 62 241 2.0 11.0 0.00 0.00 0.00 19 1018.0
20260503193543 62 194 1.0 7.0 0.00 0.00 0.00 21 1018.0
20260503193056 62 0 0.0 4.0 0.00 0.00 0.00 21 1018.1
20260503192546 62 251 1.0 9.0 0.00 0.00 0.00 20 1018.0
20260503192047 62 296 1.0 9.0 0.00 0.00 0.00 20 1018.1
20260503191555 62 0 3.0 9.0 0.00 0.00 0.00 20 1018.2
20260503191047 62 273 0.0 7.0 0.00 0.00 0.00 21 1018.4
20260503190546 61 288 1.0 7.0 0.00 0.00 0.00 21 1018.4
20260503185545 62 215 3.0 11.0 0.00 0.00 0.00 20 1018.5
20260503185045 62 219 2.0 11.0 0.00 0.00 0.00 20 1018.7
20260503184601 62 333 1.0 4.0 0.00 0.00 0.00 19 1018.6
20260503184048 62 0 0.0 4.0 0.00 0.00 0.00 20 1018.7
20260503183544 61 0 0.0 7.0 0.00 0.00 0.00 23 1018.9
20260503183105 61 0 1.0 9.0 0.00 0.00 0.00 21 1019.1
20260503182544 61 306 2.0 9.0 0.00 0.00 0.00 21 1019.2
20260503182045 61 0 2.0 7.0 0.00 0.00 0.00 22 1019.2
20260503181609 61 0 1.0 11.0 0.00 0.00 0.00 21 1019.2
20260503181047 61 225 2.0 11.0 0.00 0.00 0.00 23 1019.4
20260503180545 61 238 3.0 11.0 0.00 0.00 0.00 21 1019.5
20260503180100 61 0 1.0 7.0 0.00 0.00 0.00 21 1019.6
20260503175546 61 0 1.0 8.0 0.00 0.00 0.00 22 1019.7
20260503175044 61 0 1.0 8.0 0.00 0.00 0.00 22 1019.7
20260503174554 60 275 1.0 12.0 0.00 0.00 0.00 25 1019.9
20260503174044 60 0 0.0 12.0 0.00 0.00 0.00 25 1019.8
20260503173545 59 277 0.0 11.0 0.00 0.00 0.00 23 1019.9
20260503173052 59 0 2.0 11.0 0.00 0.00 0.00 25 1020.0
20260503172543 58 200 2.0 13.0 0.00 0.00 0.00 26 1020.1
20260503172043 57 267 2.0 13.0 0.00 0.00 0.00 26 1020.1
20260503171552 57 0 2.0 15.0 0.00 0.00 0.00 26 1020.3
20260503171043 56 0 2.0 15.0 0.00 0.00 0.00 27 1020.3
20260503170547 56 281 4.0 15.0 0.00 0.00 0.00 26 1020.3
20260503150547 52 279 2.0 9.0 0.00 0.00 0.00 33 1020.5
20260503131044 48 0 1.0 5.0 0.00 0.00 0.00 34 1021.3
20260503130551 48 273 0.0 4.0 0.00 0.00 0.00 34 1021.3
20260503110544 47 221 0.0 7.0 0.00 0.00 0.00 37 1020.1
20260503110108 47 350 0.0 7.0 0.00 0.00 0.00 37 1020.2
20260503090123 47 0 0.0 7.0 0.00 0.00 0.00 39 1020.8